This is the latest recevied weather packets stored in our database for station/object K6GKS. If no packets are shown the sender has not sent any weather packets the latest 10 day(s).
| Time | Temp. | Humidity | Pressure | Rain* | Wind** | Luminosity | Snow |
|---|---|---|---|---|---|---|---|
| 1787426282 | 27.22° C | 42% | 1015.7 hPa | 0 mm | - | - | - |
| 1787426103 | 27.78° C | 42% | 1015.6 hPa | 0 mm | - | - | - |
| 1787425923 | 27.78° C | 42% | 1015.5 hPa | 0 mm | - | - | - |
| 1787425742 | 27.22° C | 44% | 1015.8 hPa | 0 mm | - | - | - |
| 1787425562 | 26.67° C | 44% | 1015.6 hPa | 0 mm | - | - | - |
| 1787425382 | 26.67° C | 45% | 1015.7 hPa | 0 mm | - | - | - |
| 1787425202 | 26.67° C | 45% | 1015.9 hPa | 0 mm | - | - | - |
| 1787425022 | 26.11° C | 47% | 1015.8 hPa | 0 mm | - | - | - |
| 1787424842 | 26.11° C | 47% | 1015.8 hPa | 0 mm | - | - | - |
| 1787424662 | 26.67° C | 46% | 1015.8 hPa | 0 mm | - | - | - |
| 1787424483 | 26.11° C | 47% | 1015.9 hPa | 0 mm | - | - | - |
| 1787424302 | 26.11° C | 47% | 1016.1 hPa | 0 mm | - | - | - |
| 1787424123 | 26.11° C | 47% | 1015.9 hPa | 0 mm | - | - | - |
| 1787423942 | 25.56° C | 48% | 1015.9 hPa | 0 mm | - | - | - |
| 1787423761 | 25.56° C | 48% | 1015.9 hPa | 0 mm | - | - | - |
| 1787423583 | 25.56° C | 48% | 1016 hPa | 0 mm | - | - | - |
| 1787423402 | 25° C | 50% | 1015.9 hPa | 0 mm | - | - | - |
| 1787423222 | 25° C | 49% | 1016 hPa | 0 mm | - | - | - |
| 1787423042 | 25° C | 49% | 1016.2 hPa | 0 mm | - | - | - |
| 1787422862 | 24.44° C | 50% | 1016.1 hPa | 0 mm | - | - | - |
| 1787422682 | 24.44° C | 49% | 1016.1 hPa | 0 mm | - | - | - |
| 1787422503 | 24.44° C | 50% | 1016.3 hPa | 0 mm | - | - | - |
| 1787422323 | 25° C | 52% | 1016.1 hPa | 0 mm | - | - | - |
| 1787422142 | 25° C | 52% | 1016.2 hPa | 0 mm | - | - | - |
| 1787421962 | 24.44° C | 53% | 1016.2 hPa | 0 mm | - | - | - |
* Rain latest hour (hover to see other rain measurements)
** Current wind speed in m/s (hover to see current wind gust speed)